Regional Weather Roundup
Issued by NWS

Home | Current Version | Previous Version | Graphics & Text | Print | Product List | Glossary On
Versions: 1 2 3 4 5 6 7 8 9 10 11 12 13 14 15 16 17 18 19 20 21 22 23 24 25 26 27 28 29 30 31 32 33 34 35 36 37 38 39 40 41 42 43 44 45 46 47 48 49 50
000
ASUS43 KDMX 231506
RWRIA

WEATHER ROUNDUP FOR IOWA
NATIONAL WEATHER SERVICE DES MOINES IA
1000 AM CDT THU MAR 23 2017

NOTE: "FAIR" INDICATES FEW OR NO CLOUDS BELOW 12,000 FEET WITH NO
SIGNIFICANT WEATHER AND/OR OBSTRUCTIONS TO VISIBILITY.

* - THESE STATIONS ARE NOT NWS STATIONS...THUS NOT UNDER NWS
QUALITY CONTROL.  THEY ALSO DO NOT REPORT WEATHER SUCH
AS PRECIPITATION OR FOG.

IAZ001>003-012>014-020>022-031>034-043>046-231600-
   NORTHWEST IOWA

CITY           SKY/WX    TMP DP  RH WIND       PRES   REMARKS
CARROLL *      CLOUDY    45  25  45 SE22G32   30.01S
CHEROKEE *     CLOUDY    44  26  48 SE17G24   29.96F
DENISON *      CLOUDY    45  30  57 S16G28    29.95F
LE MARS *      CLOUDY    45  28  53 SE17G24   29.93F
ORANGE CITY *  CLOUDY    45  28  53 S13G22    29.93F
SHELDON *      CLOUDY    43  30  61 SE24      29.91F
STORM LAKE *   CLOUDY    43  23  45 SE25G32   29.97S
$$

IAZ055>058-069>071-079>083-090>094-231600-
   SOUTHWEST IOWA

CITY           SKY/WX    TMP DP  RH WIND       PRES   REMARKS
ATLANTIC *     CLOUDY    46  32  57 S14       30.00F
AUDUBON *      CLOUDY    45  30  57 SE15      30.01F
CLARINDA *     CLOUDY    48  32  53 S17G29    30.03F
COUNCIL BLFS * CLOUDY    48  34  57 SE18G24   29.95F
CRESTON *      CLOUDY    45  32  61 SE20G28   30.05F
HARLAN  *      CLOUDY    46  32  57 SE14G23   30.01F
RED OAK *      CLOUDY    50  34  53 SE15G23   29.99F
SHENANDOAH *   CLOUDY    50  32  50 SE18G29   29.99F
$$

IAZ047>049-059>061-072>074-084-231600-
   CENTRAL IOWA

CITY           SKY/WX    TMP DP  RH WIND       PRES   REMARKS
ANKENY *       CLOUDY    43  25  49 SE18G24   30.09F
BOONE *        CLOUDY    41  25  52 SE23      30.05F
CHARITON *     CLOUDY    43  30  61 SE14      30.11S
DES MOINES     CLOUDY    44  27  51 SE18      30.09F
GRINNELL*      CLOUDY    38  23  53 SE21      30.15F WCI  28
MARSHALLTOWN   CLOUDY    38  23  55 SE20G28   30.12F WCI  28
NEWTON *       CLOUDY    39  23  52 SE22G28   30.12F WCI  29
PERRY *        CLOUDY    43  26  51 SE20      30.05F
$$

IAZ004>006-015-016-023>025-035-036-231600-
   NORTH CENTRAL IOWA

CITY           SKY/WX    TMP DP  RH WIND       PRES   REMARKS
ALGONA *       CLOUDY    37  27  65 SE18G30   30.02F WCI  27
CLARION *      CLOUDY    37  27  65 SE23G31   30.05F WCI  26
ESTHERVILLE    MOSUNNY   38  26  62 SE21G33   29.98F WCI  28
FORT DODGE *   CLOUDY    43  21  42 SE10G22   30.04F
FOREST CITY *  CLOUDY    34  27  75 SE20      30.07F WCI  22
WEBSTER CITY * CLOUDY    41  25  52 SE22G33   30.03F
IOWA FALLS *   CLOUDY    38  25  60 SE20      30.10F WCI  28
$$

IAZ007>011-017>019-026>030-037>042-050>054-066-231600-
   NORTHEAST IOWA

CITY           SKY/WX    TMP DP  RH WIND       PRES   REMARKS
CHARLES CITY * CLOUDY    34  25  69 SE16G22   30.14F WCI  23
CLINTON *      CLOUDY    38  24  57 SE18      30.28F WCI  28
DECORAH *      CLOUDY    36  21  55 S14G25    30.16F WCI  27
MONTICELLO *   CLOUDY    37  25  60 SE16      30.23S WCI  28
OELWEIN *      CLOUDY    36  25  64 SE20      30.18F WCI  25
WATERLOO       CLOUDY    38  21  50 SE18G29   30.16F WCI  28
$$

IAZ064-065-067-068-078-231600-
   EAST CENTRAL IOWA

CITY           SKY/WX    TMP DP  RH WIND       PRES   REMARKS
MUSCATINE *    CLOUDY    39  23  52 SE15      30.26R WCI  31
$$

IAZ062-063-075>077-085>089-095>099-231600-
   SOUTHEAST IOWA

CITY           SKY/WX    TMP DP  RH WIND       PRES   REMARKS
FAIRFIELD *    CLOUDY    39  25  56 SE16G23   30.18F WCI  30
FORT MADISON * CLOUDY    37  28  70 SE12      30.24F WCI  30
KEOKUK *       CLOUDY    37  30  75 SE14G24   30.23F WCI  29
OSKALOOSA *    CLOUDY    39  25  57 SE22G28   30.17F WCI  29
CENTERVILLE *  CLOUDY    41  32  70 SE17      30.15S
WASHINGTON *   CLOUDY    39  27  60 SE20G25   30.22F WCI  30
$$

ABBREVIATIONS USED IN REMARKS
   TC - TEMPERATURES IN CELSIUS
  WCI - WIND CHILL INDEX
   HX - HEAT INDEX
  VSB - VISIBILITY
$$





USA.gov is the U.S. government's official web portal to all federal, state and local government web resources and services.